Погода в Паттани

Таиланд     6°51′15″N   101°15′32″E
темп.,
°C
ветер,
м/с
пор.,
м/с
влажн.,
%
обл.,
%
осадки,
мм/ч
давл.,
гПа
погр.,
м
8 мая, сб
сб801:00+25ю1290100 0.0 100942
04:00+25ю229271 0.0 100844
07:00+26ю1287100 0.0 100995
10:00+31юв226294 0.0 1010879
13:00+31с336960 1.4 1008895
16:00+27с3685100 3.7 1007245
19:00+26св0186100 4.1 100831
22:00+26юз118896 0.0 101023
9 мая, вс
вс901:00+25юз119156 0.0 100920
04:00+24ююв1193100 0.0 100817
07:00+25ю118972 0.0 100972
10:00+31вюв126497 0.0 1010993
13:00+31с336863 1.2 1008642
16:00+31ссз3368100 2.4 1006993
19:00+26ссв128468 3.2 100834
22:00+26юв01865 0.1 100926
10 мая, пн
пн1001:00+25ю11905 0.1 100820
04:00+24ю119370 0.0 100720
07:00+25ююв1289100 0.0 100897
10:00+31юв126297 0.0 10101080
13:00+34с225016 0.0 10071991
16:00+31с54622 0.1 10061044
19:00+27св128026 0.1 100738
22:00+26юв11848 0.0 100933
11 мая, вт
вт1101:00+25юв11873 0.0 100821
04:00+24ю11905 0.0 100723
07:00+25ю12855 0.0 1008101
10:00+32ююз11595 0.0 1009999
13:00+33с425392 0.3 10071719
16:00+31с226229 1.4 10061060
19:00+27св128314 2.6 100733
22:00+26ююв11874 0.8 100927
12 мая, ср
ср1201:00+24ю22935 0.8 100837
04:00+24ю11945 0.0 100728
07:00+25ю12895 0.0 1008107
10:00+32зюз11625 0.0 1009979
13:00+34с435184 0.5 10061884
16:00+32с335667 2.1 10051142
19:00+27ссв1178100 2.4 100729
22:00+26ююз118394 0.2 100815